Regional Weather Roundup
Issued by NWS Jackson, KY

Home | Current Version | Previous Version | Text Only | Print | Product List | Glossary On
Versions: 1 2 3 4 5 6 7 8 9 10 11 12 13 14 15 16 17 18 19 20 21 22 23 24 25 26 27 28 29 30 31 32 33 34 35 36 37 38 39 40 41 42 43 44 45 46 47 48 49 50
000
ASUS43 KJKL 231819
RWRJKL

EAST KENTUCKY HOURLY WEATHER ROUNDUP
NATIONAL WEATHER SERVICE JACKSON KY
200 PM EDT SAT AUG 23 2014

NOTE: "FAIR" INDICATES FEW OR NO CLOUDS BELOW 12,000 FEET WITH
NO SIGNIFICANT WEATHER AND/OR OBSTRUCTIONS TO VISIBILITY.

* THESE REPORTS ARE NOT UNDER NWS QUALITY CONTROL AND MAY NOT
  REPORT WEATHER SUCH AS PRECIPITATION AND FOG.

KYZ079-080-083-085-087-088-110-112-115-119-120-231900
...EASTERN KENTUCKY...

CITY           SKY/WX    TMP DP  RH WIND       PRES   REMARKS
JACKSON        PTSUNNY   84  72  67 CALM      30.05F
6HR MIN TEMP:  69; 6HR MAX TEMP:  85;

LONDON         PTSUNNY   87  72  60 NE3       30.04F HX  93
6HR MIN TEMP:  76; 6HR MAX TEMP:  88;

SOMERSET*      PTSUNNY   86  70  58 CALM      30.04F HX  90
MONTICELLO*    MOSUNNY   87  76  69 N7        30.04F HX  97
6HR MIN TEMP:  74; 6HR MAX TEMP:  89;

WILLIAMSBURG*  MOSUNNY   84  75  74 CALM      30.04F HX  92
MIDDLESBORO*   PTSUNNY   85  73  67 NW6       30.04S HX  92
6HR MIN TEMP:  71; 6HR MAX TEMP:  87;

HARLAN APT*    PTCLDY    86  68  54 MISG      30.05F
HAZARD APT*    PTCLDY    82  72  69 N3        30.04
BLACK MTN*       N/A     73  70  88 N2          N/A
PIKEVILLE APT* CLOUDY    79  72  78 N3        30.06F
BIG SANDY*     MOCLDY    82  72  72 CALM      30.05S
6HR MIN TEMP:  70; 6HR MAX TEMP:  82;

MOREHEAD APT*  PTCLDY    84  72  65 CALM      30.05F
ASHLAND*       CLOUDY    82  73  74 CALM      29.99F
$$

KYZ035-036-041-042-044-050-067-078-099-231900
...CENTRAL KENTUCKY...

CITY           SKY/WX    TMP DP  RH WIND       PRES   REMARKS
MT STERLING*   PTSUNNY   86  72  62 CALM      30.04F HX  92
FLEMING/MASON* PTSUNNY   84  73  70 CALM      30.03F HX  91
DANVILLE*      MOSUNNY   84  72  65 CALM      30.04F
RICHMOND*      MOSUNNY   86  72  62 N5        30.03F HX  92
LEXINGTON      SUNNY     89  71  55 VRB3      30.02F HX  95
6HR MIN TEMP:  72; 6HR MAX TEMP:  89;

FRANKFORT      PTSUNNY   86  73  65 E5        30.00F HX  93
6HR MIN TEMP:  71; 6HR MAX TEMP:  88;

$$

KYZ091>093-OHZ055-061-077-WVZ005-015-034-035-042-231900
...SOUTHERN OHIO/WEST VIRGINIA...

CITY           SKY/WX    TMP DP  RH WIND       PRES   REMARKS
COVINGTON      CLOUDY    87  69  54 CALM      30.01F HX  91
COLUMBUS       PTSUNNY   87  68  52 NE7       30.02S HX  90
DAYTON         PTSUNNY   85  72  65 NE5       30.03S HX  91
WILMINGTON     LGT RAIN  83  71  67 VRB5      30.02F
HUNTINGTON     MOSUNNY   81  74  79 CALM      30.02F
CHARLESTON     PTSUNNY   80  73  79 SW5       30.03R
PINEVILLE*     PTSUNNY   83  74  73 MISG      30.10F HX  90
BECKLEY        MOSUNNY   80  69  69 VRB6      30.09S
BLUEFIELD      PTSUNNY   78  68  71 W9        30.11F
$$

VAZ002-007-008-TNZ017-027-036-066-071-231900
...SOUTHWEST VIRGINIA/EAST TENNESSEE...

CITY           SKY/WX    TMP DP  RH WIND       PRES   REMARKS
WISE*          MOSUNNY   79  66  65 NW6       30.12F
JONESVILLE*      N/A     86  72  62 NW6       30.06S HX  92
ABINGDON*      MOSUNNY   83  70  63 N5        30.07F
BRISTOL        MOSUNNY   85  69  58 VRB5      30.04F
KNOXVILLE      PTSUNNY   88  73  61 NW6       30.00F HX  95
OAK RIDGE      PTSUNNY   87  72  60 W6        30.03F HX  93
CROSSVILLE     MOSUNNY   83  71  67 N8        30.08F
NASHVILLE      LGT RAIN  89  73  59 W5        30.01F HX  97
$$

...KEY TO REMARKS...
VSB - VISIBILITY IN MILES
WCI - WIND CHILL INDEX
HX  - HEAT INDEX

$$



USA.gov is the U.S. government's official web portal to all federal, state and local government web resources and services.